Find Starlink 30145

NORAD ID: 57496 Int'l Des: 2023-113 Owner: SPXS Country: US Constellation: starlink operational
LEOCIRCULAR

現在のビュー

3D地球を読み込み中...

About Starlink 30145

Starlink 30145 (NORAD 57496) is a starlink constellation satellite (v2 mini) launched Aug 7, 2023 by SPXS of US. It operates in LEO, CIRCULAR orbit with a mass of 730.00 kg.

Starlink 30145について

説明を読み込み中...

次回通過

Passes for default location (London). Set your location on the main map for personalized predictions.

高度履歴

Loading altitude history...

軌道要素

1 57496U 23113B 26175.19515205 -.00000147 00000-0 41638-5 0 9990
2 57496 43.0038 134.5978 0001056 262.6866 97.3865 15.27576008159853
Epoch: Jun 24, 2026 • Age: 9 hours

現在のステータス

高度 490.0 km
速度 7.62 km/s
衛星直下点 -28.26°S, 23.91°W
打ち上げ日 Aug 7, 2023
運用期間 2.8 years
タイプ internet

技術仕様

分類 Payload
質量 730.00 kg
乾燥質量 700.00 kg
総質量 730.00 kg
長さ 0.30 m
直径 4.10 m
スパン 29.00 m
形状 Box + pan
製造者 SPXS
バスタイプ Starlink V2M
フェーズステータス In Orbit
所有者/国 SPXS/US

Most Searched